DW1035 Weather Reports


Display with metric or nautical units.
time (UTC)temp
F
wind
direction
speed
MPH
gust
MPH
rain 1hr
in
rain 24hr
in
rain mn
in
humidity
%
barometer
mb
20260902234510 61 93 1.0 1.0 0.00 0.00 0.00 93 1015.0
20260902233511 61 88 1.0 1.0 0.00 0.00 0.00 93 1015.1
20260902233010 62 90 1.0 2.0 0.00 0.00 0.00 92 1015.2
20260902231510 62 69 1.0 1.0 0.00 0.00 0.00 91 1015.1
20260902231010 62 18 1.0 3.0 0.00 0.00 0.00 90 1015.1
20260902230010 62 102 1.0 2.0 0.00 0.00 0.00 89 1015.2
20260902224510 63 8 1.0 1.0 0.00 0.00 0.00 89 1015.5
20260902224010 63 55 1.0 1.0 0.00 0.00 0.00 88 1015.6
20260902223010 63 94 1.0 2.0 0.00 0.00 0.00 88 1015.8
20260902221510 63 55 1.0 1.0 0.00 0.00 0.00 87 1015.8
20260902221010 63 107 1.0 1.0 0.00 0.00 0.00 87 1015.8
20260902220510 63 103 1.0 1.0 0.00 0.00 0.00 87 1015.8
20260902220010 64 99 1.0 2.0 0.00 0.00 0.00 87 1015.8
20260902214509 64 96 1.0 2.0 0.00 0.00 0.00 85 1015.8
20260902214010 64 102 1.0 1.0 0.00 0.00 0.00 84 1015.7
20260902213510 64 96 1.0 1.0 0.00 0.00 0.00 84 1015.7
20260902213010 64 107 1.0 2.0 0.00 0.00 0.00 84 1015.8
20260902211509 64 84 1.0 2.0 0.00 0.00 0.00 84 1015.7
20260902210510 65 117 1.0 2.0 0.00 0.00 0.00 83 1015.7
20260902210009 65 100 1.0 2.0 0.00 0.00 0.00 82 1015.7
20260902204510 65 7 1.0 2.0 0.00 0.00 0.00 79 1015.7
20260902204010 66 84 1.0 2.0 0.00 0.00 0.00 77 1015.9
20260902203510 66 93 1.0 2.0 0.00 0.00 0.00 77 1016.0
20260902203012 66 96 1.0 2.0 0.00 0.00 0.00 76 1016.0
20260902201510 66 55 1.0 2.0 0.00 0.00 0.00 76 1016.2
20260902201009 66 116 1.0 2.0 0.00 0.00 0.00 76 1016.1
20260902200509 66 0 1.0 2.0 0.00 0.00 0.00 75 1016.2
20260902200009 67 76 1.0 2.0 0.00 0.00 0.00 75 1016.3
20260902194509 67 95 1.0 1.0 0.00 0.00 0.00 75 1016.6
20260902194009 67 112 1.0 1.0 0.00 0.00 0.00 74 1016.6
20260902193009 66 153 1.0 2.0 0.00 0.00 0.00 75 1016.6
20260902191009 66 43 1.0 2.0 0.00 0.00 0.00 76 1016.5
20260902190509 66 102 1.0 2.0 0.00 0.00 0.00 76 1016.5
20260902190010 67 105 2.0 2.0 0.00 0.00 0.00 75 1016.4
20260902184509 66 81 1.0 1.0 0.00 0.00 0.00 76 1016.4
20260902184009 66 105 1.0 2.0 0.00 0.00 0.00 75 1016.5
20260902183509 66 68 1.0 2.0 0.00 0.00 0.00 76 1016.6
20260902183009 66 86 1.0 2.0 0.00 0.00 0.00 76 1016.6
20260902181509 66 98 1.0 2.0 0.00 0.00 0.00 77 1016.8
20260902181009 66 116 1.0 1.0 0.00 0.00 0.00 77 1016.8
20260902180509 66 97 1.0 2.0 0.00 0.00 0.00 76 1016.8
20260902174508 66 109 1.0 2.0 0.00 0.00 0.00 77 1016.9
20260902173509 65 100 1.0 2.0 0.00 0.00 0.00 77 1016.7
20260902173009 66 18 1.0 2.0 0.00 0.00 0.00 78 1016.8
20260902171508 66 105 1.0 2.0 0.00 0.00 0.00 77 1016.8
20260902171009 66 89 1.0 2.0 0.00 0.00 0.00 76 1016.8
20260902170509 66 37 1.0 2.0 0.00 0.00 0.00 77 1016.7
20260902170008 66 106 1.0 2.0 0.00 0.00 0.00 76 1016.6
20260902164508 66 88 2.0 2.0 0.00 0.00 0.00 76 1016.7
20260902164008 66 95 1.0 2.0 0.00 0.00 0.00 78 1016.8
20260902163508 66 73 1.0 2.0 0.00 0.00 0.00 77 1016.9
20260902163009 66 96 1.0 2.0 0.00 0.00 0.00 77 1017.0
20260902161008 66 108 1.0 2.0 0.00 0.00 0.00 74 1017.1
20260902160508 66 288 1.0 2.0 0.00 0.00 0.00 74 1017.2
20260902160010 66 99 1.0 2.0 0.00 0.00 0.00 73 1017.3
20260902154008 66 49 1.0 2.0 0.00 0.00 0.00 75 1017.5
20260902153509 66 84 1.0 2.0 0.00 0.00 0.00 75 1017.5
20260902153008 66 73 1.0 2.0 0.00 0.00 0.00 77 1017.5
20260902151507 66 108 1.0 1.0 0.00 0.00 0.00 79 1017.5
20260902151008 66 76 1.0 2.0 0.00 0.00 0.00 79 1017.5
20260902150508 65 256 1.0 1.0 0.00 0.00 0.00 81 1017.4
20260902150008 65 58 1.0 3.0 0.00 0.00 0.00 81 1017.3
20260902143508 64 96 2.0 2.0 0.00 0.00 0.00 86 1017.0
20260902143008 64 85 1.0 2.0 0.00 0.00 0.00 87 1017.1
20260902141508 64 107 1.0 2.0 0.00 0.00 0.00 91 1017.0
20260902141008 64 78 1.0 1.0 0.00 0.00 0.00 91 1017.1
20260902140508 64 80 1.0 2.0 0.00 0.00 0.00 92 1017.0
20260902140007 64 101 2.0 2.0 0.00 0.00 0.00 93 1017.0
20260902134508 63 58 1.0 2.0 0.00 0.00 0.00 94 1016.8
20260902134008 63 98 1.0 2.0 0.00 0.00 0.00 95 1016.9
20260902133507 63 241 1.0 2.0 0.00 0.00 0.00 96 1017.0
20260902133008 62 112 1.0 3.0 0.00 0.00 0.00 96 1016.9
20260902131507 62 94 1.0 2.0 0.00 0.00 0.00 98 1017.0
20260902131008 62 89 1.0 2.0 0.00 0.00 0.00 98 1016.9
20260902130008 62 93 1.0 2.0 0.00 0.00 0.00 99 1016.8
20260902124507 61 98 1.0 2.0 0.00 0.00 0.00 99 1016.8
20260902124007 61 76 1.0 2.0 0.00 0.00 0.00 99 1016.8
20260902123508 61 86 1.0 2.0 0.00 0.00 0.00 99 1016.7
20260902123008 61 90 1.0 2.0 0.00 0.00 0.00 99 1016.8
20260902120508 62 82 1.0 2.0 0.00 0.00 0.00 97 1017.0
20260902120007 62 97 1.0 2.0 0.00 0.00 0.00 98 1016.8
20260902114507 61 86 1.0 2.0 0.00 0.00 0.00 100 1016.8
20260902114007 61 98 2.0 2.0 0.00 0.00 0.00 100 1016.8
20260902113507 61 88 1.0 2.0 0.00 0.00 0.00 100 1016.8
20260902113007 61 81 1.0 2.0 0.00 0.00 0.00 100 1016.7
20260902111507 61 87 1.0 2.0 0.00 0.00 0.00 100 1016.6
20260902111007 61 76 1.0 1.0 0.00 0.00 0.00 100 1016.6
20260902110507 60 180 1.0 2.0 0.00 0.00 0.00 100 1016.4
20260902110008 60 95 1.0 2.0 0.00 0.00 0.00 100 1016.3
20260902104507 60 103 1.0 2.0 0.00 0.00 0.00 100 1016.2
20260902103507 60 85 1.0 2.0 0.00 0.00 0.00 100 1016.2
20260902103007 61 79 1.0 2.0 0.00 0.00 0.00 100 1016.2
20260902101507 61 95 1.0 2.0 0.00 0.00 0.00 100 1016.3
20260902101007 61 99 1.0 2.0 0.00 0.00 0.00 100 1016.2
20260902094507 61 83 1.0 2.0 0.00 0.00 0.00 100 1016.2
20260902094007 61 88 2.0 2.0 0.00 0.00 0.00 100 1016.0
20260902093506 61 65 1.0 1.0 0.00 0.00 0.00 100 1016.0
20260902093007 61 86 1.0 2.0 0.00 0.00 0.00 100 1015.9
20260902091006 61 74 1.0 1.0 0.00 0.00 0.00 100 1015.9
20260902084506 62 101 1.0 2.0 0.00 0.00 0.00 100 1015.8
20260902083506 62 79 1.0 1.0 0.00 0.00 0.00 100 1015.8
20260902083006 62 53 1.0 2.0 0.00 0.00 0.00 100 1015.8
20260902081506 61 74 1.0 1.0 0.00 0.00 0.00 100 1015.8
20260902081007 61 78 1.0 2.0 0.00 0.00 0.00 100 1015.8
20260902080506 61 71 1.0 1.0 0.00 0.00 0.00 100 1015.9
20260902080007 61 93 1.0 2.0 0.00 0.00 0.00 100 1015.9
20260902073507 61 67 1.0 3.0 0.00 0.00 0.00 100 1015.5
20260902073006 61 246 1.0 3.0 0.00 0.00 0.00 100 1015.4
20260902071506 61 100 1.0 1.0 0.00 0.00 0.00 100 1015.4
20260902071006 61 13 1.0 1.0 0.00 0.00 0.00 100 1015.4
20260902070506 61 27 1.0 2.0 0.00 0.00 0.00 100 1015.5
20260902064506 61 121 1.0 3.0 0.00 0.00 0.00 100 1015.5
20260902064005 61 269 1.0 3.0 0.00 0.00 0.00 100 1015.4
20260902063006 61 71 1.0 2.0 0.00 0.00 0.00 100 1015.3
20260902061506 61 83 1.0 2.0 0.00 0.00 0.00 100 1015.4
20260902061006 61 96 1.0 3.0 0.00 0.00 0.00 100 1015.5
20260902060506 61 104 1.0 3.0 0.00 0.00 0.00 100 1015.5
20260902060006 61 91 1.0 3.0 0.00 0.00 0.00 100 1015.5
20260902054506 61 266 1.0 2.0 0.00 0.00 0.00 100 1015.4
20260902054005 61 89 1.0 1.0 0.00 0.00 0.00 100 1015.4
20260902053506 61 99 1.0 1.0 0.00 0.00 0.00 100 1015.3
20260902053006 61 91 1.0 3.0 0.00 0.00 0.00 100 1015.1
20260902051506 61 86 1.0 1.0 0.00 0.00 0.00 100 1015.0
20260902051006 61 97 1.0 2.0 0.00 0.00 0.00 100 1014.9
20260902050506 61 89 1.0 1.0 0.00 0.00 0.00 100 1014.8
20260902050008 61 86 1.0 1.0 0.00 0.00 0.00 100 1014.7
20260902044005 61 84 1.0 2.0 0.00 0.00 0.00 100 1014.6
20260902043006 61 84 1.0 2.0 0.00 0.00 0.00 100 1014.5
20260902041505 61 93 0.0 1.0 0.00 0.00 0.00 100 1014.4
20260902041005 61 99 1.0 1.0 0.00 0.00 0.00 100 1014.4
20260902040505 61 98 1.0 1.0 0.00 0.00 0.00 100 1014.4
20260902034505 61 91 1.0 2.0 0.00 0.00 0.00 100 1014.3
20260902034005 61 154 1.0 2.0 0.00 0.00 0.00 100 1014.3
20260902033005 61 47 1.0 3.0 0.00 0.00 0.00 100 1014.1
20260902031505 61 33 1.0 2.0 0.00 0.00 0.00 100 1013.8
20260902031005 61 55 1.0 1.0 0.00 0.00 0.00 100 1013.7
20260902030505 61 84 1.0 1.0 0.00 0.00 0.00 100 1013.7
20260902030006 61 89 1.0 2.0 0.00 0.00 0.00 100 1013.6
20260902024004 62 94 1.0 1.0 0.00 0.00 0.00 100 1013.9
20260902023505 62 66 1.0 1.0 0.00 0.00 0.00 100 1013.9
20260902023005 62 108 1.0 2.0 0.00 0.00 0.00 100 1013.9
20260902021005 61 150 1.0 2.0 0.00 0.00 0.00 100 1013.8
20260902020005 62 80 1.0 3.0 0.00 0.00 0.00 100 1014.0
20260902014505 62 91 1.0 1.0 0.00 0.00 0.00 99 1014.1
20260902014005 62 86 1.0 1.0 0.00 0.00 0.00 99 1014.1
20260902013504 62 87 1.0 1.0 0.00 0.00 0.00 99 1014.0
20260902013005 62 86 1.0 3.0 0.00 0.00 0.00 99 1014.0
20260902011504 62 95 1.0 2.0 0.00 0.00 0.00 99 1013.9
20260902010505 62 37 2.0 3.0 0.00 0.00 0.00 99 1013.8
20260902010005 62 94 1.0 3.0 0.00 0.00 0.00 98 1013.7
20260902004005 62 79 1.0 1.0 0.00 0.00 0.00 97 1013.7
20260902003504 62 110 1.0 1.0 0.00 0.00 0.00 97 1013.6
20260902001504 63 99 1.0 1.0 0.00 0.00 0.00 96 1013.2
20260902001004 63 91 1.0 1.0 0.00 0.00 0.00 95 1013.2
20260902000505 63 92 1.0 1.0 0.00 0.00 0.00 95 1013.2
20260902000004 64 49 1.0 2.0 0.00 0.00 0.00 95 1013.2